Regional Weather Roundup
Issued by NWS

Home | Current Version | Previous Version | Graphics & Text | Print | Product List | Glossary On
Versions: 1 2 3 4 5 6 7 8 9 10 11 12 13 14 15 16 17 18 19 20 21 22 23 24 25 26 27 28 29 30 31 32 33 34 35 36 37 38 39 40 41 42 43 44 45 46 47 48 49 50
660
ASUS44 KLIX 250310
RWRLA
LOUISIANA WEATHER ROUNDUP
NATIONAL WEATHER SERVICE NEW ORLEANS LA
1000 PM CDT FRI OCT 24 2014

NOTE: "FAIR" INDICATES FEW OR NO CLOUDS BELOW 12,000 FEET WITH NO
      SIGNIFICANT WEATHER AND/OR OBSTRUCTIONS TO VISIBILITY.
      SKY/WX - SKY CONDITION AND SIGNIFICANT WEATHER.
      TMP - AIR TEMPERATURE.    DP   - DEWPOINT TEMPERATURE.
      RH  - RELATIVE HUMIDITY.  PRES - PRESSURE.
      HX  - HEAT INDEX.         WCI  - WIND CHILL INDEX.

*  THESE STATIONS ARE NOT NWS OR FAA STATIONS AND ARE NOT UNDER
   NWS QUALITY CONTROL.

LAZ040-048-061>063-065-066-069-250400-
SOUTHEAST LOUISIANA

CITY           SKY/WX    TMP DP  RH WIND       PRES   REMARKS
N.O. AUDUBON     N/A     65  52  64 MISG        N/A
N.O. INTL ARPT CLEAR     65  51  60 N3        30.10R
N.O. LAKEFRONT CLEAR     71  52  50 N13       30.10R
N.O. DOWNTOWN* FAIR      70  48  46 N5        30.10S
SLIDELL        CLEAR     54  50  86 CALM      30.09R
BATON ROUGE    CLEAR     55  51  86 CALM      30.11S
BOOTHVILLE     CLEAR     65  57  75 NW5       30.09R
BELLE CHASSE   CLEAR     54  49  83 CALM      30.09S
BOGALUSA*        N/A     53  47  81 CALM      30.11R
NEW ROADS*     FAIR      54  51  89 CALM      30.12R
GONZALES*      FAIR      55  55 100 CALM      30.11R
HAMMOND*       CLEAR     55  48  76 CALM      30.13R
HOUMA*         CLEAR     55  51  87 CALM      30.10S
PORT FOURCHON* CLEAR     66  54  63 N6        30.13S

$$

LAZ041-044-053-054-250400-
SOUTHWEST LOUISIANA

CITY           SKY/WX    TMP DP  RH WIND       PRES   REMARKS
LAKE CHARLES   CLEAR     56  53  90 CALM      30.13R
LAFAYETTE      CLEAR     57  55  93 CALM      30.12R
PATTERSON      CLEAR     57  54  88 N3        30.14R
SALT POINT       N/A     63  54  72 CALM      30.11R
NEW IBERIA     CLEAR     58  54  86 CALM      30.12R
CHENAULT AIRPK CLEAR     60  53  79 CALM      30.14R

$$

LAZ027-028-250400-
CENTRAL LOUISIANA

CITY           SKY/WX    TMP DP  RH WIND       PRES   REMARKS
FORT POLK      CLEAR     56  53  89 SE1       30.13R
ALEXANDRIA INT CLEAR     56  53  90 CALM      30.12R
ALEXANDRIA     CLEAR     50  50 100 CALM      30.14R FOG

$$

LAZ001-002-250400-
NORTHWEST LOUISIANA

CITY           SKY/WX    TMP DP  RH WIND       PRES   REMARKS
SHREVEPORT     MOCLDY    60  56  86 CALM      30.12R
BARKSDALE AFB  CLEAR     57  56  94 SE2       30.13R
DTN SHREVEPORT CLEAR     59  56  89 CALM      30.12R

$$

LAZ014-016-250400-
NORTHEAST LOUISIANA

CITY           SKY/WX    TMP DP  RH WIND       PRES   REMARKS
MONROE         CLEAR     54  52  93 CALM      30.14R
TALLULAH       CLEAR     48  46  93 CALM      30.13R

$$




USA.gov is the U.S. government's official web portal to all federal, state and local government web resources and services.